Regional Weather Roundup
Issued by NWS Sioux Falls, SD

Home | Current Version | Previous Version | Text Only | Print | Product List | Glossary On
Versions: 1 2 3 4 5 6 7 8 9 10 11 12 13 14 15 16 17 18 19 20 21 22 23 24 25 26 27 28 29 30 31 32 33 34 35 36 37 38 39 40 41 42 43 44 45 46 47 48 49 50
000
ASUS43 KFSD 010410
RWRFSD

WEATHER ROUNDUP FOR SE SOUTH DAKOTA/SW MINNESOTA/NW IOWA
NATIONAL WEATHER SERVICE SIOUX FALLS SD
1100 PM CDT FRI JUL 31 2015

NOTE: "FAIR" INDICATES FEW OR NO CLOUDS BELOW 12,000 FEET WITH NO
SIGNIFICANT WEATHER AND OR OBSTRUCTIONS TO VISIBILITY.


SDZ038>040-050-052>070-010500-
SOUTHEAST SOUTH DAKOTA

CITY           SKY/WX    TMP DP  RH WIND       PRES   REMARKS
BROOKINGS      CLEAR     66  57  72 S8        30.07S
CHAMBERLAIN    CLEAR     67  62  83 SE6       30.08R
HURON          CLEAR     74  57  55 SW10      30.04R
MADISON        FAIR      68  61  77 SW7       30.08R
MITCHELL       CLEAR     73  62  68 S6        30.07R
SIOUX FALLS    CLEAR     73  62  68 SW5       30.07R
WINNER         FAIR      74  60  61 SE9       30.10R
YANKTON        CLEAR     73  66  78 E6        30.07R
$$

MNZ071-072-080-081-089-090-097-098-010500-
SOUTHWEST MINNESOTA

CITY           SKY/WX    TMP DP  RH WIND       PRES   REMARKS
FAIRMONT       CLEAR     63  54  72 SW7       30.05S
JACKSON        CLEAR     68  59  73 SW7       30.07S
LUVERNE        CLEAR     66  61  82 CALM      30.08R
MARSHALL       CLEAR     70  59  68 SW9       30.04S
MONTEVIDEO     CLEAR     66  55  68 SW3       30.02F
PIPESTONE      CLEAR     66  61  82 SW3       30.07S
REDWOOD FALLS  CLEAR     68  60  75 S5        30.01S
TRACY          CLEAR     70  63  78 SW8       30.04S
WINDOM         CLEAR     70  61  73 SW6       30.05S
WORTHINGTON    CLEAR     68  57  68 SW8       30.08R
$$

IAZ001>003-012>014-020>022-031-032-NEZ013-014-SDZ071-010500-
NORTHWEST IOWA

CITY           SKY/WX    TMP DP  RH WIND       PRES   REMARKS
CHEROKEE       CLEAR     66  64  93 CALM      30.08S
DENISON        CLOUDY    72  68  88 E3        30.07R
ESTHERVILLE    CLEAR     64  60  87 S5        30.07R
LE MARS        CLEAR     68  66  94 CALM      30.09R
ORANGE CITY    CLEAR     66  64  94 CALM      30.09R
SHELDON        CLEAR     63  61  94 CALM      30.07R
SIOUX CITY     CLEAR     75  66  73 E7        30.08R
SPENCER        CLEAR     65  60  84 CALM      30.08R
STORM LAKE     CLEAR     70  59  68 SE6       30.10R
$$

ABBREVIATIONS USED IN REMARKS
   TC - TEMPERATURE IN CELSIUS
  WCI - WIND CHILL INDEX
   HX - HEAT INDEX
  VSB - VISIBILITY




USA.gov is the U.S. government's official web portal to all federal, state and local government web resources and services.